This is the latest recevied weather packets stored in our database for station/object OK1PHM-12. If no packets are shown the sender has not sent any weather packets the latest 10 day(s).
| Time | Temp. | Humidity | Pressure | Rain* | Wind** | Luminosity | Snow |
|---|---|---|---|---|---|---|---|
| 1778106512 | 14.44° C | 86% | 1008.8 hPa | - | - | - | - |
| 1778105611 | 14.44° C | 89% | 1008.7 hPa | - | - | - | - |
| 1778104711 | 13.89° C | 90% | 1009.2 hPa | - | - | - | - |
| 1778103810 | 13.89° C | 91% | 1009.1 hPa | - | - | - | - |
| 1778102909 | 13.33° C | 91% | 1008.4 hPa | - | - | - | - |
| 1778102008 | 13.89° C | 90% | 1007.6 hPa | - | - | - | - |
| 1778101107 | 13.89° C | 89% | 1007.6 hPa | - | - | - | - |
| 1778100206 | 13.89° C | 87% | 1007.4 hPa | - | - | - | - |
| 1778099306 | 13.89° C | 87% | 1007.2 hPa | - | - | - | - |
| 1778098405 | 13.89° C | 88% | 1007.1 hPa | - | - | - | - |
| 1778097504 | 13.89° C | 88% | 1007.2 hPa | - | - | - | - |
| 1778096603 | 13.89° C | 89% | 1007.3 hPa | - | - | - | - |
| 1778095702 | 14.44° C | 89% | 1007.3 hPa | - | - | - | - |
| 1778094801 | 14.44° C | 89% | 1007.3 hPa | - | - | - | - |
| 1778093900 | 14.44° C | 89% | 1007.1 hPa | - | - | - | - |
| 1778092999 | 14.44° C | 87% | 1007.1 hPa | - | - | - | - |
| 1778092099 | 15° C | 87% | 1007.2 hPa | - | - | - | - |
| 1778091198 | 15° C | 87% | 1007.2 hPa | - | - | - | - |
| 1778090297 | 15.56° C | 85% | 1006.9 hPa | - | - | - | - |
| 1778089396 | 16.11° C | 86% | 1007 hPa | - | - | - | - |
| 1778088495 | 17.22° C | 86% | 1006.9 hPa | - | - | - | - |
| 1778087595 | 17.22° C | 85% | 1007.1 hPa | - | - | - | - |
| 1778086694 | 17.22° C | 84% | 1006.4 hPa | - | - | - | - |
| 1778085793 | 17.78° C | 83% | 1006.3 hPa | - | - | - | - |
| 1778084892 | 17.78° C | 83% | 1006.3 hPa | - | - | - | - |
* Rain since midnight (hover to see other rain measurements)
** Current wind speed in m/s (hover to see current wind gust speed)